Weather History for PAAQ - November, 2012

Change the Weather History Date:

Saturday, November 24, 2012

  Actual Average Record
Temperature  
Mean Temperature 8 °F -  
Max Temperature 14 °F 25 °F 50 °F (1952)
Min Temperature 3 °F 11 °F -16 °F (1955)
Degree Days  
Heating Degree Days 56    
Moisture  
Dew Point 5 °F    
Average Humidity 85    
Maximum Humidity 88    
Minimum Humidity 80    
Precipitation  
Precipitation 0.00 in - - ()
Sea Level Pressure  
Sea Level Pressure 29.86 in    
Wind  
Wind Speed 0 mph (North)    
Max Wind Speed 0 mph    
Max Gust Speed -    
Visibility 10 miles    
Events      
Averages and records for this station are not official NWS values.
T = Trace of Precipitation, MM = Missing Value Source: NWS Daily Summary

Daily Weather History Graph

Daily Weather History Graph

Search for Another Location

Airport or City:

Trip Planner

Search our weather history database for the weather conditions in past years. The results will help you decide how hot, cold, wet, or windy it might be!

Date:

Astronomy

Nov. 24, 2012 Rise Set
Actual Time 9:30 AM AKST 3:55 PM AKST
Civil Twilight 8:34 AM AKST 4:51 PM AKST
Nautical Twilight 7:36 AM AKST 5:49 PM AKST
Astronomical Twilight 6:44 AM AKST 6:41 PM AKST
Moon 2:32 PM AKST (11/24) 5:03 AM AKST (11/24)
Length of Visible Light 8h 17m
Length of Day
6h 24m
Waxing Gibbous, 88% of the Moon is Illuminated
Nov 24
Waxing Gibbous
Nov 28
Full
Dec 6
Last Quarter
Dec 12
New
Dec 19
First Quarter

Hourly Weather History & Observations

Time (AKST) Temp. Dew Point Humidity Pressure Visibility Wind Dir Wind Speed Gust Speed Precip Events Conditions
12:53 AM 7.0 °F 3.9 °F 87% 29.76 in 10.0 mi Calm Calm - N/A   Clear
1:53 AM 9.0 °F 5.0 °F 84% 29.76 in 10.0 mi Calm Calm - N/A   Clear
2:53 AM 7.0 °F 3.9 °F 87% 29.77 in 10.0 mi Calm Calm - N/A   Clear
3:53 AM 8.1 °F 5.0 °F 87% 29.77 in 10.0 mi Calm Calm - N/A   Clear
4:53 AM 8.1 °F 5.0 °F 87% 29.78 in 10.0 mi Calm Calm - N/A   Clear
5:53 AM 8.1 °F 3.9 °F 83% 29.78 in 10.0 mi Calm Calm - N/A   Clear
6:53 AM 10.0 °F 7.0 °F 87% 29.79 in 10.0 mi Calm Calm - N/A   Clear
7:53 AM 8.1 °F 3.9 °F 83% 29.79 in 10.0 mi Calm Calm - N/A   Clear
8:53 AM 3.9 °F -0.0 °F 84% 29.81 in 10.0 mi Calm Calm - N/A   Clear
9:53 AM 9.0 °F 5.0 °F 84% 29.83 in 10.0 mi Calm Calm - N/A   Clear
10:53 AM 10.0 °F 6.1 °F 84% 29.83 in 10.0 mi Calm Calm - N/A   Clear
11:53 AM 10.0 °F 6.1 °F 84% 29.85 in 10.0 mi Calm Calm - N/A   Partly Cloudy
12:53 PM 14.0 °F 9.0 °F 80% 29.86 in 10.0 mi Calm Calm - N/A   Partly Cloudy
1:53 PM 12.9 °F 9.0 °F 84% 29.88 in 10.0 mi Calm Calm - N/A   Partly Cloudy
2:53 PM 10.9 °F 6.1 °F 81% 29.88 in 10.0 mi Calm Calm - N/A   Partly Cloudy
3:53 PM 10.9 °F 6.1 °F 81% 29.89 in 10.0 mi Calm Calm - N/A   Clear
4:53 PM 9.0 °F 6.1 °F 88% 29.90 in 10.0 mi Calm Calm - N/A   Clear
5:53 PM 8.1 °F 5.0 °F 87% 29.92 in 10.0 mi Calm Calm - N/A   Clear
6:53 PM 5.0 °F 1.9 °F 87% 29.93 in 10.0 mi Calm Calm - N/A   Clear
7:53 PM 3.9 °F -0.0 °F 84% 29.94 in 10.0 mi Calm Calm - N/A   Clear
8:53 PM 8.1 °F 5.0 °F 87% 29.96 in 10.0 mi Calm Calm - N/A   Clear
9:53 PM 8.1 °F 5.0 °F 87% 29.98 in 10.0 mi Calm Calm - N/A   Clear
10:53 PM 5.0 °F 1.0 °F 84% 30.00 in 10.0 mi Calm Calm - N/A   Clear
11:53 PM 5.0 °F 1.0 °F 84% 30.01 in 9.0 mi Calm Calm - N/A   Clear